"2010-06-28 00:00:00",239500,3.413,88.8,3.178,0.196,20.23,108.6889,21.53,22.41,40.48,0,110.9,13.19,22.35,50.8
"2010-06-28 00:00:30",239501,4.024,90.6,1.083,0.232,20.23,108.6904,21.53,22.42,40.51,0,110.9,13.19,22.36,52.6
"2010-06-28 00:01:00",239502,4.136,86.8,1.596,0.121,20.23,108.6889,21.53,22.41,40.52,0,110.9,13.19,22.35,48.8
"2010-06-28 00:01:30",239503,4.161,84.7,1.144,0.126,20.28,108.6911,21.53,22.41,40.52,0,110.9,13.19,22.36,46.7
"2010-06-28 00:02:00",239504,4.09,85.4,1.825,0.146,20.25,108.6904,21.53,22.4,40.52,0,110.9,13.19,22.36,47.4
"2010-06-28 00:02:30",239505,4.192,85,2.036,0.126,20.25,108.691,21.53,22.4,40.64,0,110.9,13.19,22.36,47.0
"2010-06-28 00:03:00",239506,4.231,81.8,1.309,0.136,20.23,108.692,21.54,22.39,40.61,0,110.9,13.19,22.36,43.8
"2010-06-28 00:03:30",239507,4.038,83.7,2.745,0.217,20.26,108.6929,21.54,22.4,41.14,0,110.9,13.19,22.36,45.7
"2010-06-28 00:04:00",239508,4.001,81.8,1.373,0.133,20.25,108.6932,21.54,22.38,40.52,0,110.9,13.18,22.37,43.8
"2010-06-28 00:04:30",239509,3.883,83.4,1.204,0.083,20.29,108.6918,21.53,22.39,40.5,0,110.9,13.18,22.36,45.4
"2010-06-28 00:05:00",239510,3.719,82.8,1.287,0.117,20.29,108.6927,21.54,22.38,40.47,0,110.9,13.19,22.36,44.8
"2010-06-28 00:05:30",239511,3.469,81,1.471,0.107,20.27,108.6933,21.54,22.39,40.48,0,110.9,13.18,22.37,43.0
"2010-06-28 00:06:00",239512,3.372,78.17,2.111,0.103,20.27,108.6939,21.54,22.38,40.48,0,110.9,13.18,22.37,40.2
"2010-06-28 00:06:30",239513,3.112,74.49,2.509,0.064,20.25,108.6941,21.54,22.39,40.46,0,110.9,13.18,22.37,36.5
"2010-06-28 00:07:00",239514,2.964,73.93,2.701,0.078,20.27,108.6938,21.54,22.39,40.44,0,110.9,13.18,22.37,35.9
"2010-06-28 00:07:30",239515,2.871,71.98,2.135,0.064,20.26,108.6947,21.54,22.39,40.31,0,110.9,13.19,22.37,34.0
"2010-06-28 00:08:00",239516,2.609,68.63,2.263,0.121,20.22,108.6953,21.54,22.39,40.3,0,110.9,13.19,22.37,30.6
"2010-06-28 00:08:30",239517,2.69,74.22,3.397,0.196,20.2,108.6944,21.54,22.39,40.22,0,110.9,13.19,22.37,36.2
"2010-06-28 00:09:00",239518,3.005,74.89,2.041,0.124,20.22,108.695,21.54,22.41,40.31,0,110.9,13.19,22.37,36.9
"2010-06-28 00:09:30",239519,3.022,73.31,2.242,0.115,20.19,108.695,21.54,22.4,40.4,0,110.9,13.19,22.37,35.3
"2010-06-28 00:10:00",239520,3.16,74.28,2.992,0.187,20.14,108.6936,21.54,22.39,40.44,0,110.9,13.19,22.37,36.3
"2010-06-28 00:10:30",239521,3.437,77.17,2.581,0.082,20.23,108.6927,21.54,22.39,40.18,0,111,13.19,22.36,39.2
"2010-06-28 00:11:00",239522,3.504,81.5,2.048,0.102,20.18,108.6902,21.53,22.38,40.24,0,111,13.19,22.36,43.5
"2010-06-28 00:11:30",239523,3.56,76.05,2.706,0.083,20.24,108.6835,21.51,22.39,40.43,0,111,13.19,22.34,38.1
"2010-06-28 00:12:00",239524,3.634,77.48,1.63,0.136,20.22,108.6753,21.49,22.37,40.59,0,111,13.19,22.32,39.5
"2010-06-28 00:12:30",239525,3.448,77.18,2.04,0.152,20.24,108.6708,21.48,22.37,40.61,0,110.9,13.19,22.31,39.2
"2010-06-28 00:13:00",239526,3.426,74.46,2.138,0.082,20.22,108.6703,21.48,22.35,40.59,0,111,13.19,22.31,36.5
"2010-06-28 00:13:30",239527,3.624,75.21,3.141,0.14,20.21,108.672,21.48,22.37,40.53,0,110.9,13.19,22.31,37.2
"2010-06-28 00:14:00",239528,3.786,75.06,2.405,0.136,20.2,108.6703,21.48,22.37,40.41,0,111,13.19,22.31,37.1
"2010-06-28 00:14:30",239529,3.782,80.1,1.323,0.096,20.19,108.6734,21.49,22.35,40.43,0,111,13.19,22.31,42.1
"2010-06-28 00:15:00",239530,3.58,79.24,1.309,0.097,20.19,108.6722,21.48,22.37,40.64,0,111,13.19,22.31,41.2
"2010-06-28 00:15:30",239531,3.554,77.72,1.312,0.068,20.19,108.6709,21.48,22.37,40.71,0,110.9,13.19,22.31,39.7
"2010-06-28 00:16:00",239532,3.74,78.59,1.822,0.13,20.2,108.6697,21.48,22.36,40.62,0,111,13.19,22.31,40.6
"2010-06-28 00:16:30",239533,4.209,82,2.169,0.205,20.23,108.6703,21.48,22.36,40.5,0,111,13.19,22.31,44.0
"2010-06-28 00:17:00",239534,4.369,79.32,3.33,0.17,20.23,108.6725,21.49,22.37,40.32,0,110.9,13.19,22.31,41.3
"2010-06-28 00:17:30",239535,3.983,75.8,2.071,0.212,20.25,108.686,21.52,22.38,40.66,0,110.9,13.19,22.35,37.8
"2010-06-28 00:18:00",239536,3.717,73.57,0.967,0.06,20.18,108.6866,21.52,22.36,40.62,0,110.9,13.19,22.35,35.6
"2010-06-28 00:18:30",239537,3.846,72.55,3.062,0.089,20.16,108.6821,21.51,22.37,40.76,0,111,13.19,22.34,34.6
"2010-06-28 00:19:00",239538,3.695,77.16,2.283,0.27,20.24,108.6813,21.51,22.37,40.98,0,111,13.19,22.33,39.2
"2010-06-28 00:19:30",239539,3.618,81,2.162,0.127,20.24,108.6818,21.51,22.37,40.5,0,110.9,13.19,22.34,43.0
"2010-06-28 00:20:00",239540,3.244,79.92,2.63,0.165,20.23,108.6902,21.53,22.39,40.05,0,111,13.19,22.36,41.9
"2010-06-28 00:20:30",239541,3.435,73.11,1.652,0.158,20.25,108.6948,21.54,22.37,40.68,0,111,13.19,22.37,35.1
"2010-06-28 00:21:00",239542,3.905,76.18,1.668,0.238,20.28,108.693,21.54,22.39,39.84,0,111,13.19,22.37,38.2
"2010-06-28 00:21:30",239543,4.233,77.37,0.831,0.117,20.26,108.6942,21.54,22.39,40.16,0,110.9,13.19,22.37,39.4
"2010-06-28 00:22:00",239544,4.256,85.7,7.908,0.211,20.27,108.6947,21.54,22.4,40.69,0,111,13.19,22.37,47.7
"2010-06-28 00:22:30",239545,4.426,86.3,3.598,0.168,20.27,108.6944,21.54,22.39,40.01,0,111,13.19,22.37,48.3
"2010-06-28 00:23:00",239546,3.653,82.8,2.56,0.29,20.28,108.6947,21.54,22.4,39.8,0,111,13.19,22.37,44.8
"2010-06-28 00:23:30",239547,3.383,82.7,2.712,0.115,20.25,108.6953,21.54,22.41,40.06,0,111,13.19,22.37,44.7
"2010-06-28 00:24:00",239548,3.977,83.1,2.569,0.251,20.25,108.6959,21.55,22.41,40.32,0,111,13.18,22.37,45.1
"2010-06-28 00:24:30",239549,3.62,88,4.175,0.27,20.26,108.6971,21.55,22.41,40.49,0,111,13.19,22.38,50.0
"2010-06-28 00:25:00",239550,4.15,84.4,2.234,0.372,20.26,108.6974,21.55,22.42,40.18,0,111,13.19,22.38,46.4
"2010-06-28 00:25:30",239551,4.327,81.6,3.817,0.229,20.24,108.6956,21.54,22.4,40.14,0,111,13.19,22.37,43.6
"2010-06-28 00:26:00",239552,4.303,75.2,3.154,0.11,20.23,108.6974,21.55,22.42,40.16,0,111,13.19,22.38,37.2
"2010-06-28 00:26:30",239553,4.631,84.1,2.815,0.364,20.26,108.6971,21.55,22.4,40.08,0,111,13.19,22.38,46.1
"2010-06-28 00:27:00",239554,4.942,84.6,3.202,0.221,20.24,108.6962,21.55,22.41,40.29,0,111,13.19,22.37,46.6
"2010-06-28 00:27:30",239555,4.342,83,4.7,0.254,20.25,108.6977,21.55,22.41,40.64,0,111,13.19,22.38,45.0
"2010-06-28 00:28:00",239556,3.58,81.8,6.794,0.249,20.23,108.6983,21.55,22.41,40.63,0,111,13.19,22.38,43.8
"2010-06-28 00:28:30",239557,3.788,78.8,2.541,0.277,20.23,108.6977,21.55,22.41,40.58,0,111,13.19,22.38,40.8
"2010-06-28 00:29:00",239558,3.492,75.5,3.364,0.389,20.24,108.6999,21.56,22.41,41.08,0,110.9,13.19,22.38,37.5
"2010-06-28 00:29:30",239559,3.582,69.24,3.453,0.232,20.24,108.6977,21.55,22.42,41.18,0,110.9,13.19,22.38,31.2
"2010-06-28 00:30:00",239560,3.068,72.39,2.326,0.196,20.27,108.6974,21.55,22.41,41.48,0,111,13.19,22.38,34.4
"2010-06-28 00:30:30",239561,3.559,73.4,4.628,0.494,20.22,108.6977,21.55,22.42,41.13,0,111,13.19,22.38,35.4
"2010-06-28 00:31:00",239562,3.775,70.21,2.859,0.43,20.2,108.6956,21.54,22.42,40.7,0,111,13.19,22.37,32.2
"2010-06-28 00:31:30",239563,3.366,77.04,3.226,0.5,20.22,108.6968,21.55,22.43,40.76,0,111,13.19,22.37,39.0
"2010-06-28 00:32:00",239564,3.396,71.88,4.897,0.32,20.21,108.6956,21.54,22.41,40.43,0,111,13.19,22.37,33.9
"2010-06-28 00:32:30",239565,3.23,71.08,4.044,0.517,20.21,108.6957,21.54,22.4,40.52,0,111,13.19,22.37,33.1
"2010-06-28 00:33:00",239566,3.687,77.02,2.091,0.152,20.24,108.6956,21.54,22.41,40.57,0,111,13.19,22.37,39.0
"2010-06-28 00:33:30",239567,3.748,78.28,2.537,0.229,20.25,108.6945,21.54,22.4,40.63,0,111,13.19,22.37,40.3
"2010-06-28 00:34:00",239568,3.567,79.13,2.579,0.093,20.25,108.6939,21.54,22.4,40.46,0,111,13.19,22.37,41.1
"2010-06-28 00:34:30",239569,3.922,86.1,1.779,0.167,20.25,108.6963,21.55,22.39,40.57,0,111,13.19,22.37,48.1
"2010-06-28 00:35:00",239570,4.535,82.1,6.032,0.199,20.31,108.6943,21.54,22.37,40.6,0,111,13.19,22.37,44.1
"2010-06-28 00:35:30",239571,3.707,84.7,6.287,0.337,20.28,108.6942,21.54,22.39,40.57,0,111,13.19,22.37,46.7
"2010-06-28 00:36:00",239572,4.077,86.9,3.392,0.263,20.27,108.6975,21.55,22.38,40.55,0,111,13.19,22.38,48.9
"2010-06-28 00:36:30",239573,4.042,91.6,2.469,0.313,20.27,108.6976,21.55,22.39,40.57,0,111,13.19,22.38,53.6
"2010-06-28 00:37:00",239574,4.493,91,3.407,0.181,20.28,108.6984,21.55,22.39,40.7,0,111,13.19,22.38,53.0
"2010-06-28 00:37:30",239575,4.626,81,2.634,0.148,20.34,108.6959,21.55,22.38,40.63,0,111,13.19,22.37,43.0
"2010-06-28 00:38:00",239576,4.542,85.1,2.06,0.344,20.38,108.6904,21.53,22.39,40.68,0,111,13.19,22.36,47.1
"2010-06-28 00:38:30",239577,4.606,93.4,3.52,0.308,20.39,108.6961,21.55,22.4,40.83,0,111,13.19,22.37,55.4
"2010-06-28 00:39:00",239578,4.191,96.8,5.058,0.284,20.38,108.6959,21.55,22.39,40.91,0,111,13.19,22.37,58.8
"2010-06-28 00:39:30",239579,3.797,76.88,4.337,0.212,20.33,108.6977,21.55,22.4,40.86,0,111,13.19,22.38,38.9
"2010-06-28 00:40:00",239580,3.99,83.3,2.682,0.203,20.42,108.6956,21.54,22.4,40.86,0,111,13.19,22.37,45.3
"2010-06-28 00:40:30",239581,3.863,89.1,5.224,0.294,20.46,108.6974,21.55,22.39,41.04,0,110.9,13.19,22.38,51.1
"2010-06-28 00:41:00",239582,3.736,92.5,3.525,0.552,20.52,108.7032,21.56,22.41,41.06,0,111,13.19,22.39,54.5
"2010-06-28 00:41:30",239583,3.585,89.7,5.757,0.233,20.48,108.7035,21.57,22.4,41.14,0,111,13.19,22.39,51.7
"2010-06-28 00:42:00",239584,3.862,87.4,4.699,0.345,20.44,108.7041,21.57,22.43,41.1,0,111,13.19,22.39,49.4
"2010-06-28 00:42:30",239585,3.567,90.9,4.822,0.184,20.45,108.7035,21.57,22.42,41.1,0,111,13.19,22.39,52.9
"2010-06-28 00:43:00",239586,4.037,90.6,6.813,0.263,20.41,108.7041,21.57,22.42,41.11,0,111,13.19,22.39,52.6
"2010-06-28 00:43:30",239587,4.058,91.4,5.001,0.261,20.38,108.7041,21.57,22.42,40.84,0,111,13.19,22.39,53.4
"2010-06-28 00:44:00",239588,4.304,96.6,4.153,0.219,20.46,108.7038,21.57,22.41,40.95,0,110.9,13.19,22.39,58.6
"2010-06-28 00:44:30",239589,4.993,97.9,2.589,0.214,20.51,108.7042,21.57,22.4,41.01,0,111,13.2,22.39,59.9
"2010-06-28 00:45:00",239590,4.784,97.2,2.298,0.173,20.49,108.7038,21.57,22.41,41.13,0,110.9,13.2,22.39,59.2
"2010-06-28 00:45:30",239591,4.26,99.5,3.71,0.366,20.47,108.7045,21.57,22.4,41.29,0,111,13.2,22.39,61.5
"2010-06-28 00:46:00",239592,4.231,95.4,2.687,0.218,20.45,108.7042,21.57,22.41,41.38,0,110.9,13.2,22.39,57.4
"2010-06-28 00:46:30",239593,4.015,89.5,4.915,0.436,20.44,108.7033,21.56,22.41,41.43,0,110.9,13.2,22.39,51.5
"2010-06-28 00:47:00",239594,3.348,83.4,3.127,0.208,20.43,108.7016,21.56,22.41,41.43,0,110.9,13.2,22.39,45.4
"2010-06-28 00:47:30",239595,3.849,78.65,4.917,0.311,20.46,108.6994,21.55,22.4,41.21,0,110.9,13.2,22.38,40.7
"2010-06-28 00:48:00",239596,4.863,90.1,2.483,0.149,20.5,108.7014,21.56,22.4,41.3,0,110.9,13.2,22.39,52.1
"2010-06-28 00:48:30",239597,4.795,94.8,2.698,0.235,20.49,108.7014,21.56,22.4,41.26,0,110.9,13.2,22.39,56.8
"2010-06-28 00:49:00",239598,5.647,87.3,2.394,0.181,20.51,108.7036,21.57,22.41,41.24,0,110.9,13.2,22.39,49.3
"2010-06-28 00:49:30",239599,5.259,77.95,4.932,0.305,20.49,108.7042,21.57,22.41,41.5,0,110.9,13.2,22.39,39.9
"2010-06-28 00:50:00",239600,4.425,77.68,5.084,0.265,20.47,108.7045,21.57,22.42,41.69,0,110.9,13.2,22.39,39.7
"2010-06-28 00:50:30",239601,4.694,91.6,2.567,0.23,20.48,108.7045,21.57,22.42,41.94,0,110.9,13.2,22.39,53.6
"2010-06-28 00:51:00",239602,5.029,92.9,3.025,0.221,20.49,108.7045,21.57,22.42,42.04,0,110.9,13.2,22.39,54.9
"2010-06-28 00:51:30",239603,4.995,90.3,3.898,0.152,20.53,108.7045,21.57,22.43,41.27,0,110.9,13.2,22.39,52.3
"2010-06-28 00:52:00",239604,4.666,89,2.781,0.332,20.5,108.7045,21.57,22.43,41.51,0,110.9,13.2,22.39,51.0
"2010-06-28 00:52:30",239605,3.918,82.9,3.505,0.238,20.48,108.7045,21.57,22.43,41.91,0,110.9,13.2,22.39,44.9
"2010-06-28 00:53:00",239606,4.134,81.1,3.068,0.142,20.47,108.7045,21.57,22.45,41.87,0,110.9,13.2,22.39,43.1
"2010-06-28 00:53:30",239607,3.874,85.7,3.707,0.147,20.44,108.7045,21.57,22.44,41.88,0,110.9,13.2,22.39,47.7
"2010-06-28 00:54:00",239608,4.694,91,2.767,0.233,20.53,108.7045,21.57,22.43,41.78,0,110.9,13.19,22.39,53.0
"2010-06-28 00:54:30",239609,4.761,88.5,3.547,0.162,20.52,108.7045,21.57,22.43,41.97,0,110.9,13.19,22.39,50.5
"2010-06-28 00:55:00",239610,4.157,88.5,2.32,0.248,20.5,108.7045,21.57,22.44,42.09,0,110.9,13.19,22.39,50.5
"2010-06-28 00:55:30",239611,4.057,85.4,2.915,0.221,20.51,108.7045,21.57,22.45,42.23,0,110.9,13.19,22.39,47.4
"2010-06-28 00:56:00",239612,4.81,87.1,4.024,0.246,20.53,108.7045,21.57,22.45,41.74,0,110.9,13.19,22.39,49.1
"2010-06-28 00:56:30",239613,4.927,87.4,3.054,0.289,20.5,108.7045,21.57,22.44,42.34,0,110.9,13.19,22.39,49.4
"2010-06-28 00:57:00",239614,4.686,83.4,1.545,0.123,20.53,108.7045,21.57,22.44,42.66,0,110.9,13.19,22.39,45.4
"2010-06-28 00:57:30",239615,4.755,85.9,1.465,0.108,20.51,108.7045,21.57,22.44,42.31,0,110.9,13.19,22.39,47.9
"2010-06-28 00:58:00",239616,4.381,89.3,0.944,0.165,20.51,108.7045,21.57,22.43,41.63,0,110.9,13.19,22.39,51.3
"2010-06-28 00:58:30",239617,4.085,90.9,1.936,0.136,20.53,108.7045,21.57,22.44,41.05,0,110.9,13.19,22.39,52.9
"2010-06-28 00:59:00",239618,4.088,93.8,1.426,0.078,20.54,108.7045,21.57,22.45,40.79,0,110.9,13.19,22.39,55.8
"2010-06-28 00:59:30",239619,3.895,100.4,1.581,0.104,20.59,108.7106,21.58,22.45,40.47,0,110.9,13.2,22.41,62.4
"2010-06-28 01:00:00",239620,3.885,97.9,1.091,0.114,20.66,108.7289,21.63,22.46,40.36,0,110.9,13.2,22.46,59.9
"2010-06-28 01:00:30",239621,3.868,102.5,1.343,0.15,20.57,108.7382,21.65,22.49,40.2,0,110.9,13.2,22.48,64.5
"2010-06-28 01:01:00",239622,4.291,98.2,2.937,0.28,20.56,108.7382,21.65,22.51,40.26,0,110.9,13.2,22.48,60.2
"2010-06-28 01:01:30",239623,4.02,99.8,2.644,0.187,20.57,108.7399,21.66,22.53,40.18,0,110.9,13.2,22.49,61.8
"2010-06-28 01:02:00",239624,4.127,103.5,2.357,0.125,20.63,108.7472,21.68,22.54,40.05,0,110.9,13.2,22.50,65.5
"2010-06-28 01:02:30",239625,4.009,104.4,2.214,0.223,20.69,108.7593,21.71,22.55,40.01,0,110.9,13.2,22.54,66.4
"2010-06-28 01:03:00",239626,3.752,106.2,2.235,0.135,20.73,108.7716,21.74,22.57,39.79,0,110.9,13.2,22.57,68.2
"2010-06-28 01:03:30",239627,3.869,105,2.431,0.076,20.65,108.7719,21.74,22.58,39.74,0,110.9,13.2,22.57,67.0
"2010-06-28 01:04:00",239628,3.694,104.4,2.2,0.091,20.65,108.7719,21.74,22.6,39.76,0,110.9,13.2,22.57,66.4
"2010-06-28 01:04:30",239629,3.714,106.3,1.512,0.09,20.73,108.7753,21.75,22.62,39.62,0,110.9,13.2,22.58,68.3
"2010-06-28 01:05:00",239630,3.632,104.7,2.236,0.09,20.64,108.7804,21.76,22.63,39.69,0,110.9,13.2,22.59,66.7
"2010-06-28 01:05:30",239631,3.723,102.8,1.699,0.087,20.57,108.7812,21.76,22.64,39.68,0,110.9,13.2,22.59,64.8
"2010-06-28 01:06:00",239632,3.753,106.5,1.247,0.042,20.72,108.7874,21.78,22.65,39.47,0,110.9,13.2,22.61,68.5
"2010-06-28 01:06:30",239633,3.725,107.3,1.146,0.054,20.7,108.8014,21.82,22.65,39.23,0,110.9,13.2,22.64,69.3
"2010-06-28 01:07:00",239634,3.866,110.8,2.036,0.132,20.58,108.8054,21.83,22.66,39.11,0,110.9,13.2,22.65,72.8
"2010-06-28 01:07:30",239635,3.987,113.5,1.979,0.067,20.71,108.8057,21.83,22.68,39.05,0,110.9,13.2,22.66,75.5
"2010-06-28 01:08:00",239636,4.138,114.4,1.595,0.089,20.67,108.8057,21.83,22.7,39.05,0,110.9,13.2,22.66,76.4
"2010-06-28 01:08:30",239637,4.071,116,1.41,0.078,20.67,108.8057,21.83,22.71,39.04,0,110.9,13.2,22.66,78.0
"2010-06-28 01:09:00",239638,4.227,115.7,1.246,0.131,20.63,108.8102,21.84,22.71,39.07,0,110.9,13.2,22.67,77.7
"2010-06-28 01:09:30",239639,4.138,118.7,1.608,0.105,20.69,108.8206,21.87,22.72,39.03,0,110.9,13.2,22.69,80.7
"2010-06-28 01:10:00",239640,4.536,119,1.246,0.133,20.78,108.8388,21.91,22.74,38.8,0,110.9,13.2,22.74,81.0
"2010-06-28 01:10:30",239641,4.574,124.3,2.706,0.108,20.77,108.8394,21.91,22.77,38.78,0,110.9,13.2,22.74,86.3
"2010-06-28 01:11:00",239642,4.583,128.1,2.161,0.165,20.78,108.8394,21.91,22.77,38.58,0,110.9,13.2,22.74,90.1
"2010-06-28 01:11:30",239643,4.903,127,1.517,0.141,20.79,108.84,21.92,22.78,38.26,0,110.9,13.2,22.74,89.0
"2010-06-28 01:12:00",239644,5.126,128.8,1.422,0.097,20.8,108.8462,21.93,22.81,38.12,0,110.9,13.2,22.76,90.8
"2010-06-28 01:12:30",239645,5.214,129.3,2.059,0.103,20.81,108.8616,21.97,22.82,38.27,0,110.9,13.19,22.80,91.3
"2010-06-28 01:13:00",239646,5.496,131,1.883,0.149,20.8,108.8723,22,22.83,38.39,0,110.9,13.19,22.83,93.0
"2010-06-28 01:13:30",239647,5.767,133.2,1.533,0.091,20.75,108.8731,22,22.85,38.58,0,110.9,13.19,22.83,95.2
"2010-06-28 01:14:00",239648,6.276,131.3,1.043,0.222,20.57,108.8656,21.98,22.86,39.86,0,110.9,13.19,22.81,93.3
"2010-06-28 01:14:30",239649,7.271,134.7,1.966,0.289,20.43,108.8406,21.92,22.83,41.33,0,110.9,13.19,22.75,96.7
"2010-06-28 01:15:00",239650,6.852,149.5,8,0.501,20.15,108.8037,21.82,22.82,43.29,0,110.9,13.19,22.65,111.5
"2010-06-28 01:15:30",239651,8.7,188.1,9.92,1.468,19.95,108.7278,21.63,22.69,44.21,0,110.9,13.19,22.45,150.1
"2010-06-28 01:16:00",239652,8.31,197.7,4.812,0.537,19.79,108.6623,21.46,22.59,44.09,0,110.9,13.2,22.29,159.7
"2010-06-28 01:16:30",239653,6.772,198.9,7.989,0.911,19.84,108.6066,21.32,22.44,44.17,0,110.9,13.2,22.14,160.9
"2010-06-28 01:17:00",239654,8.64,201.4,4.816,0.488,19.85,108.5577,21.19,22.34,42.24,0,110.9,13.2,22.02,163.4
"2010-06-28 01:17:30",239655,8.68,200.2,4.072,0.645,20.13,108.5327,21.13,22.25,43.36,0,110.9,13.2,21.95,162.2
"2010-06-28 01:18:00",239656,9.73,204.7,3.061,0.54,19.94,108.5051,21.06,22.18,42.2,0,110.9,13.2,21.88,166.7
"2010-06-28 01:18:30",239657,10.14,201,1.763,0.242,19.89,108.4941,21.03,22.13,40.91,0,110.9,13.2,21.85,163.0
"2010-06-28 01:19:00",239658,9.99,201.8,1.808,0.4,19.71,108.4688,20.96,22.08,40.8,0,110.9,13.2,21.79,163.8
"2010-06-28 01:19:30",239659,9.31,205.2,1.429,0.234,19.52,108.4447,20.9,22.03,42.49,0,110.9,13.2,21.73,167.2
"2010-06-28 01:20:00",239660,9.69,206.8,1.782,0.302,19.67,108.4129,20.82,21.96,42.27,0,110.9,13.2,21.64,168.8
"2010-06-28 01:20:30",239661,9.91,207.8,1.814,0.226,19.54,108.3887,20.76,21.88,43.28,0,110.9,13.2,21.58,169.8
"2010-06-28 01:21:00",239662,10,208.3,2.442,0.319,19.53,108.3612,20.69,21.8,43.52,0,110.9,13.2,21.51,170.3
"2010-06-28 01:21:30",239663,10.21,207.6,1.395,0.305,19.49,108.3322,20.61,21.75,43.75,0,110.9,13.2,21.44,169.6
"2010-06-28 01:22:00",239664,9.83,205.9,1.826,0.333,19.49,108.3019,20.53,21.69,43.49,0,110.9,13.2,21.36,167.9
"2010-06-28 01:22:30",239665,10.16,204.8,1.565,0.247,20.21,108.2782,20.47,21.61,42.29,0,110.9,13.2,21.30,166.8
"2010-06-28 01:23:00",239666,10.8,202.7,1.391,0.158,20.01,108.2858,20.49,21.56,40.09,0,110.9,13.2,21.32,164.7
"2010-06-28 01:23:30",239667,10.9,202.8,0.884,0.133,19.99,108.2943,20.51,21.53,39.78,0,110.9,13.2,21.34,164.8
"2010-06-28 01:24:00",239668,10.92,202.6,1.321,0.332,19.89,108.3003,20.53,21.53,40.14,0,110.9,13.2,21.35,164.6
"2010-06-28 01:24:30",239669,10.59,202.5,0.693,0.247,20.16,108.3014,20.53,21.52,40.01,0,110.9,13.2,21.36,164.5
"2010-06-28 01:25:00",239670,10.51,202.5,1.006,0.281,20.29,108.3011,20.53,21.52,40.29,0,110.9,13.21,21.36,164.5
"2010-06-28 01:25:30",239671,10.75,202.6,1.196,0.299,20.16,108.3179,20.58,21.53,40.31,0,110.9,13.21,21.40,164.6
"2010-06-28 01:26:00",239672,10.7,204.8,1.459,0.156,20.13,108.3361,20.62,21.53,40.08,0,110.9,13.21,21.45,166.8
"2010-06-28 01:26:30",239673,10.23,203.8,1.593,0.556,20.21,108.3402,20.63,21.55,40.15,0,110.9,13.21,21.46,165.8
"2010-06-28 01:27:00",239674,9.83,205.4,2.984,0.342,19.73,108.3561,20.67,21.58,40.68,0,110.9,13.21,21.50,167.4
"2010-06-28 01:27:30",239675,9.67,208.3,3.339,0.389,19.8,108.343,20.64,21.58,40.06,0,110.9,13.21,21.46,170.3
"2010-06-28 01:28:00",239676,9.93,204,1.79,0.561,19.67,108.3422,20.64,21.57,39.73,0,110.9,13.2,21.46,166.0
"2010-06-28 01:28:30",239677,10.44,201.5,0.875,0.18,20.2,108.3437,20.64,21.56,39.17,0,110.9,13.2,21.47,163.5
"2010-06-28 01:29:00",239678,10.11,199.5,0.706,0.221,20.3,108.3475,20.65,21.57,39.89,0,110.9,13.2,21.48,161.5
"2010-06-28 01:29:30",239679,9.61,199.3,0.711,0.102,20.27,108.3718,20.71,21.58,40.13,0,110.9,13.2,21.54,161.3
"2010-06-28 01:30:00",239680,9.78,197.8,0.892,0.101,20.29,108.3854,20.75,21.6,39.75,0,110.9,13.2,21.57,159.8
"2010-06-28 01:30:30",239681,9.87,198.3,0.773,0.09,20.22,108.3923,20.77,21.62,39.2,0,110.9,13.2,21.59,160.3
"2010-06-28 01:31:00",239682,10.11,199.2,0.505,0.108,20.15,108.4065,20.8,21.66,38.58,0,110.9,13.2,21.63,161.2
"2010-06-28 01:31:30",239683,9.93,199.4,0.582,0.106,20.16,108.4251,20.85,21.66,38.46,0,110.9,13.2,21.68,161.4
"2010-06-28 01:32:00",239684,9.91,199.6,0.905,0.104,20.1,108.4267,20.85,21.66,38.54,0,110.9,13.2,21.68,161.6
"2010-06-28 01:32:30",239685,9.91,200.5,0.693,0.175,20.05,108.4282,20.86,21.67,38.2,0,110.9,13.2,21.68,162.5
"2010-06-28 01:33:00",239686,10.26,201.2,0.876,0.229,19.87,108.4301,20.86,21.69,37.52,0,110.9,13.2,21.69,163.2
"2010-06-28 01:33:30",239687,10.36,204.4,1.613,0.221,19.63,108.4246,20.85,21.69,37.46,0,110.9,13.21,21.67,166.4
"2010-06-28 01:34:00",239688,10.01,204.1,1.307,0.243,19.71,108.3984,20.78,21.68,37.79,0,110.9,13.21,21.61,166.1
"2010-06-28 01:34:30",239689,10.56,207.2,0.894,0.195,19.53,108.3977,20.78,21.66,37.93,0,110.9,13.21,21.60,169.2
"2010-06-28 01:35:00",239690,10.49,204.8,1.027,0.131,19.54,108.3664,20.7,21.64,38.25,0,110.9,13.21,21.52,166.8
"2010-06-28 01:35:30",239691,10.61,206.2,0.843,0.173,19.75,108.3521,20.66,21.59,37.86,0,110.9,13.21,21.49,168.2
"2010-06-28 01:36:00",239692,10.39,205.8,0.878,0.17,19.51,108.3354,20.62,21.56,38.36,0,110.9,13.21,21.44,167.8
"2010-06-28 01:36:30",239693,10.36,205.2,1.03,0.14,19.84,108.3303,20.61,21.52,38.15,0,110.9,13.21,21.43,167.2
"2010-06-28 01:37:00",239694,10.2,205.1,0.671,0.148,19.96,108.3231,20.59,21.51,37.84,0,110.9,13.21,21.41,167.1
"2010-06-28 01:37:30",239695,9.74,204.9,1.108,0.201,20.09,108.3347,20.62,21.51,37.81,0,110.9,13.21,21.44,166.9
"2010-06-28 01:38:00",239696,9.57,206.9,1.345,0.155,19.95,108.3361,20.62,21.51,38.13,0,110.9,13.21,21.45,168.9
"2010-06-28 01:38:30",239697,9.67,205.6,1.018,0.241,19.99,108.3361,20.62,21.51,38.35,0,110.9,13.21,21.45,167.6
"2010-06-28 01:39:00",239698,10.07,207.1,0.494,0.178,19.71,108.3361,20.62,21.52,38.27,0,110.9,13.21,21.45,169.1
"2010-06-28 01:39:30",239699,9.67,205.9,1.27,0.142,19.22,108.3283,20.6,21.51,39.52,0,110.9,13.21,21.43,167.9
"2010-06-28 01:40:00",239700,9.8,205.4,1.087,0.218,19.64,108.3024,20.54,21.48,39.13,0,110.9,13.21,21.36,167.4
"2010-06-28 01:40:30",239701,9.83,205.6,0.767,0.093,19.96,108.3021,20.53,21.43,38.6,0,110.9,13.21,21.36,167.6
"2010-06-28 01:41:00",239702,9.68,207.5,0.651,0.181,20.11,108.3024,20.54,21.43,38.43,0,110.9,13.21,21.36,169.5
"2010-06-28 01:41:30",239703,9.32,206.8,0.941,0.26,20.08,108.3027,20.54,21.43,38.69,0,110.9,13.21,21.36,168.8
"2010-06-28 01:42:00",239704,8.91,206.2,1.157,0.211,20.17,108.3195,20.58,21.46,38.69,0,110.9,13.21,21.40,168.2
"2010-06-28 01:42:30",239705,9.19,206.6,1.274,0.246,19.98,108.3361,20.62,21.47,38.2,0,110.9,13.21,21.45,168.6
"2010-06-28 01:43:00",239706,9.52,207.3,0.582,0.187,19.84,108.3361,20.62,21.5,38.29,0,110.8,13.21,21.45,169.3
"2010-06-28 01:43:30",239707,9.75,206.1,0.778,0.169,19.85,108.3361,20.62,21.51,38.84,0,110.9,13.21,21.45,168.1
"2010-06-28 01:44:00",239708,9.82,207,0.892,0.16,19.64,108.3361,20.62,21.52,40.19,0,110.8,13.21,21.45,169.0
"2010-06-28 01:44:30",239709,9.62,206.6,1.061,0.182,19.42,108.333,20.61,21.5,41.37,0,110.8,13.21,21.44,168.6
"2010-06-28 01:45:00",239710,9.55,206.7,0.812,0.28,19.3,108.3038,20.54,21.48,42.01,0,110.8,13.21,21.36,168.7
"2010-06-28 01:45:30",239711,9.32,204.8,1.244,0.213,19.38,108.2762,20.47,21.43,42.33,0,110.8,13.21,21.29,166.8
"2010-06-28 01:46:00",239712,8.73,206.4,1.598,0.162,19.28,108.2478,20.4,21.39,42.21,0,110.8,13.21,21.22,168.4
"2010-06-28 01:46:30",239713,9.13,206.9,1.503,0.314,19.33,108.2155,20.31,21.34,43.09,0,110.8,13.21,21.14,168.9
"2010-06-28 01:47:00",239714,9.57,208.4,1.65,0.246,19.37,108.1874,20.24,21.29,43.78,0,110.8,13.21,21.06,170.4
"2010-06-28 01:47:30",239715,9.51,210,0.93,0.138,19.38,108.1651,20.18,21.24,44.57,0,110.8,13.21,21.01,172.0
"2010-06-28 01:48:00",239716,9.31,205.5,0.965,0.246,19.41,108.1362,20.11,21.17,44.32,0,110.8,13.21,20.93,167.5
"2010-06-28 01:48:30",239717,9.32,207.7,1.452,0.248,19.42,108.1185,20.06,21.12,44.35,0,110.8,13.21,20.89,169.7
"2010-06-28 01:49:00",239718,9.43,207.1,1.927,0.241,19.43,108.0999,20.02,21.06,44.39,0,110.8,13.21,20.84,169.1
"2010-06-28 01:49:30",239719,9.1,204.9,2.489,0.253,19.39,108.078,19.96,21.01,44.47,0,110.8,13.21,20.78,166.9